STARLINK-1096 (44942 NORAD) Tracking and Keplerian Element Data

This shows tracking and keplerian element data for the satellite.

Feedback or suggestion? Click here.




ElementValue
Catalog44942
NameSTARLINK-1096
Epoch Orbit175
Epoch Day189.91668981
Epoch Year2020
RAAN262.677
Inclination52.9981
Eccentricity9.63E-05
Argument of Perigee123.5332
Mean Anonmoly163.484
Mean Motion15.05600258
Decay Rate-0.00027643
L11 44942U 20001AE 20189.91668981 -.00027643 00000-0 -18844-2 0 9995
L22 44942 52.9981 262.6770 0000963 123.5332 163.4840 15.05600258 1757

Live tracking and technical data element details for STARLINK-1096 (NORAD 44942). STARLINK-1096 can be tracked NOW for your location showing map with azimuth and elevation plus other details from your city location.

Track the satellite on the map from your city or location and see movement details for azimuth, elevation, latitude, longitude, range, height, and movement on the map or in text.







IsCatalogInMostPopularTable: catalog: 44942, numindb: 41
Update: records affected: 1



GetName: 44942 STARLINK-1096

Hit Count: updated at: Fri, 10 Jul 2020 04:23:20 GMT